User: anonymous   Login
Location: Meriden
(44.0740°N, 93.3870°W)
Time: 18:53:54
(UTC-06:00)
Language:

Hamsat - Orbit

View from above orbital plane
View from above orbital plane
View from above satellite
View from above satellite

Ground track
Ground track

The orbit data is extracted from the following two-line orbital elements,

1 28650U 05017B   14325.88016901  .00004181  00000-0  47921-3 0  9116
2 28650 097.5642 323.0569 0024685 001.7497 358.3801 14.86209307516647
Epoch (UTC): 21 November 2014 21:07:26
Eccentricity: 0.0024685
inclination: 97.5642°
perigee height: 592 km
apogee height: 627 km
right ascension of ascending node: 323.0569°
argument of perigee: 1.7497°
revolutions per day: 14.86209307
mean anomaly at epoch: 358.3801°
orbit number at epoch: 51664

The dashed part of the orbit path shows where the satellite is in the earth's shadow,  

DLR